TimeCEST,TemperatureF,Dew PointF,Humidity,Sea Level PressureIn,VisibilityMPH,Wind Direction,Wind SpeedMPH,Gust SpeedMPH,PrecipitationIn,Events,Conditions,WindDirDegrees,DateUTC
12:00 AM,69.8,62.6,78,30.15,-9999.0,Calm,Calm,-,N/A,,Clear,0,2012-10-06 22:00:00
1:00 AM,68.0,60.8,78,30.15,-9999.0,South,3.5,-,N/A,,Clear,180,2012-10-06 23:00:00
2:00 AM,66.2,60.8,83,30.15,-9999.0,SSE,3.5,-,N/A,,Clear,150,2012-10-07 00:00:00
3:00 AM,66.2,60.8,83,30.15,-9999.0,SSE,2.3,-,N/A,,Clear,150,2012-10-07 01:00:00
4:00 AM,64.4,60.8,88,30.12,-9999.0,East,1.2,-,N/A,,Clear,90,2012-10-07 02:00:00
5:00 AM,64.4,59.0,83,30.12,-9999.0,Variable,3.5,-,N/A,,Clear,0,2012-10-07 03:00:00
6:00 AM,62.6,59.0,88,30.12,-9999.0,East,3.5,-,N/A,,Clear,90,2012-10-07 04:00:00
8:00 AM,60.8,59.0,94,30.12,-9999.0,Calm,Calm,-,N/A,,Clear,0,2012-10-07 06:00:00
9:00 AM,62.6,59.0,88,30.15,-9999.0,NNE,2.3,-,N/A,,Clear,30,2012-10-07 07:00:00
10:00 AM,69.8,60.8,73,30.15,-9999.0,NNE,5.8,-,N/A,,Clear,30,2012-10-07 08:00:00
11:00 AM,73.4,62.6,69,30.15,-9999.0,NNE,10.4,-,N/A,,Clear,30,2012-10-07 09:00:00
12:00 PM,78.8,62.6,57,30.15,-9999.0,ENE,8.1,-,N/A,,Clear,60,2012-10-07 10:00:00
1:00 PM,82.4,62.6,51,30.15,-9999.0,ENE,8.1,-,N/A,,Clear,60,2012-10-07 11:00:00
2:00 PM,82.4,60.8,48,30.12,-9999.0,Variable,4.6,-,N/A,,Clear,0,2012-10-07 12:00:00
3:00 PM,87.8,60.8,40,30.12,-9999.0,Variable,2.3,-,N/A,,Clear,0,2012-10-07 13:00:00
4:00 PM,87.8,59.0,38,30.09,-9999.0,Variable,1.2,-,N/A,,Clear,0,2012-10-07 14:00:00
5:00 PM,89.6,59.0,36,30.09,-9999.0,Variable,2.3,-,N/A,,Clear,0,2012-10-07 15:00:00
6:00 PM,89.6,55.4,31,30.09,-9999.0,Variable,2.3,-,N/A,,Clear,0,2012-10-07 16:00:00
7:00 PM,89.6,57.2,33,30.09,-9999.0,Calm,Calm,-,N/A,,Clear,0,2012-10-07 17:00:00
8:00 PM,82.4,57.2,42,30.09,-9999.0,Variable,2.3,-,N/A,,Clear,0,2012-10-07 18:00:00
9:00 PM,78.8,57.2,47,30.09,-9999.0,West,3.5,-,N/A,,Clear,280,2012-10-07 19:00:00
10:00 PM,73.4,59.0,61,30.12,-9999.0,ESE,3.5,-,N/A,,Clear,120,2012-10-07 20:00:00
11:00 PM,71.6,57.2,60,30.12,-9999.0,Variable,2.3,-,N/A,,Clear,0,2012-10-07 21:00:00